Temp
14 14 14 15 16 17 17 18 18 19 19 20 20 19 20 21 21 20 18 28 28 27 26 23 23 24 24 24 26 25 25 26 28 28 29 28 28 29 27 26 27 26 24 23 21
14 14 15 15 15 16 17 18 18 18 19 20 20 20 19 20 17 14 28 28 27 27 23 22 22 23 23 24 25 24 23 26 28 30 29 29 28 27 26 26 26 24 24 22 22
13 14 14 14 15 16 17 17 18 18 19 20 20 19 19 19 17 24 27 28 26 26 27 25 25 24 24 24 26 25 25 27 30 30 29 29 29 28 26 25 25 23 23 22 22
12 13 14 14 14 16 17 18 18 18 19 19 19 19 19 18 25 27 27 27 25 24 26 26 24 24 24 25 27 26 27 29 30 32 30 29 28 28 27 27 26 25 24 23 22
12 12 13 14 14 15 17 18 18 19 20 20 20 19 18 18 19 27 26 27 25 24 25 24 25 25 26 26 28 28 29 30 30 31 30 31 29 28 28 27 26 25 24 23 23
12 12 13 14 14 16 17 18 18 19 21 21 20 17 17 19 26 25 25 24 25 24 24 25 25 25 27 27 28 30 29 30 30 29 31 30 28 28 27 26 26 25 24 24 23
11 12 13 13 15 17 18 19 19 20 21 21 18 16 16 20 25 25 25 25 26 25 24 26 27 27 26 28 29 30 30 29 30 29 30 30 28 27 26 26 25 25 24 24 24
11 12 12 13 15 16 18 20 20 20 20 20 16 15 16 24 24 25 26 26 26 25 26 27 27 26 27 27 28 29 28 29 31 30 30 30 28 27 26 26 25 25 25 25 24
11 11 12 13 15 17 19 20 20 19 18 17 15 15 18 23 23 26 26 25 26 24 25 26 26 25 27 25 25 25 28 30 32 31 30 30 27 26 26 26 25 25 25 25 24
11 12 12 12 15 17 19 20 18 17 15 15 15 16 20 22 24 25 26 25 27 23 25 25 22 22 21 22 23 27 28 29 30 30 30 27 26 25 26 25 25 25 25 25 24
10 11 12 13 15 17 18 18 12 15 16 18 18 18 20 21 24 25 27 26 27 25 23 23 22 21 23 24 27 28 29 29 30 31 29 28 25 25 25 25 25 25 25 25 25
10 11 12 13 15 17 17 13 15 14 12 15 15 16 19 21 20 23 26 26 25 24 24 23 22 23 24 25 27 28 28 28 29 28 28 26 26 25 26 26 26 26 25 25 25
9 10 11 14 16 16 14 16 15 14 13 16 18 18 19 19 18 20 24 26 25 23 23 22 25 25 26 26 26 27 26 28 29 28 27 26 25 25 26 26 26 26 26 26 26
9 10 10 13 15 13 15 16 16 15 14 19 22 22 20 19 21 21 24 26 25 24 22 24 25 26 25 26 26 26 25 29 30 27 25 27 25 24 24 26 26 26 26 26 26
9 11 10 10 11 10 17 17 17 16 18 22 22 23 19 22 22 24 25 25 24 24 23 24 24 25 26 26 27 27 26 29 29 27 27 26 25 24 24 25 26 27 27 27 27
10 12 10 11 9 16 16 17 17 16 18 20 20 19 19 18 20 20 25 25 24 25 25 24 26 25 25 27 27 29 29 25 23 23 24 26 26 25 23 27 27 27 28 28 27
12 13 13 12 13 15 16 14 15 16 19 18 18 17 17 16 19 19 20 18 18 22 23 25 26 26 27 26 27 27 25 23 24 24 24 23 24 28 27 29 29 28 28 28 28
14 15 14 15 16 15 15 15 18 18 18 19 17 17 16 15 16 17 19 17 17 17 19 21 23 25 26 25 25 23 23 21 25 22 24 23 24 27 28 29 30 29 29 28 29
15 15 15 15 16 15 12 13 15 17 17 17 17 15 14 15 15 16 16 15 17 15 18 19 22 24 26 26 26 24 23 24 23 22 24 24 25 28 28 29 27 29 27 29 28
11 11 15 16 16 15 11 13 15 16 17 16 15 14 13 13 15 15 15 16 15 16 15 17 20 23 27 27 26 25 23 25 19 24 26 25 27 28 30 29 27 27 29 29 29
11 11 15 16 15 10 11 12 15 17 17 16 15 14 13 14 14 14 14 15 15 16 16 14 17 22 24 25 24 24 24 21 21 21 23 25 26 25 29 29 29 28 29 28 28
7 12 15 16 12 6 11 14 14 15 14 15 14 14 14 14 14 14 15 15 15 15 15 15 13 17 21 23 21 24 24 23 21 24 21 23 26 29 28 28 28 28 27 27 28
5 5 15 15 11 9 10 14 14 15 15 15 15 15 14 14 15 14 14 15 15 14 14 14 14 16 22 22 22 21 23 21 18 19 21 24 26 29 27 28 29 28 27 27 27
6 9 7 6 5 10 10 12 13 14 14 15 15 14 13 13 12 13 13 15 14 14 17 13 12 15 17 20 19 21 22 24 20 20 23 22 26 28 29 30 30 28 28 28 27
4 6 6 6 7 7 9 10 12 12 12 13 14 14 13 13 12 12 13 11 13 13 11 10 14 15 16 17 19 20 22 23 22 22 24 27 25 26 27 28 29 28 27 27 27
6 6 5 5 5 8 8 9 11 11 12 12 12 13 12 12 13 12 12 11 11 11 10 8 14 14 17 19 20 21 22 22 22 24 23 23 25 24 25 27 29 29 27 27 26
7 7 6 5 5 8 9 11 11 10 12 11 11 11 12 12 12 10 10 9 11 12 10 10 10 13 17 18 19 20 22 22 23 20 20 24 24 20 22 26 28 28 27 28 27
Height
816 813 809 805 801 797 794 790 787 782 779 775 772 770 766 760 756 753 748 742 742 747 750 754 759 763 766 767 765 766 787 792 781 778 772 760 769 764 765 773 773 776 779 782 791
815 812 808 804 800 797 792 788 785 781 776 773 770 768 765 760 755 749 738 738 741 744 748 752 759 762 770 767 766 774 791 779 760 755 762 758 761 768 775 776 779 780 779 786 793
814 810 806 802 798 794 790 786 782 778 774 771 769 766 764 760 757 740 737 734 739 743 746 751 755 759 769 766 766 769 780 759 751 747 748 757 761 760 774 784 773 778 783 787 792
812 808 804 799 795 791 787 782 778 774 771 769 767 765 763 761 768 737 736 735 737 743 747 750 756 765 771 771 759 773 759 752 748 740 746 755 754 765 767 768 763 770 773 783 791
810 806 801 796 792 787 783 778 774 769 767 764 763 763 762 763 751 738 736 736 738 742 745 748 756 761 769 765 760 763 755 748 743 741 743 746 756 763 766 763 763 773 779 786 791
809 803 798 793 788 782 777 773 768 765 761 758 758 760 763 768 737 737 736 737 738 740 743 746 750 752 759 760 760 748 749 746 743 744 740 753 759 759 766 766 769 774 781 786 791
807 802 796 790 784 778 772 767 764 760 757 754 754 756 759 746 735 735 735 737 738 738 741 743 744 750 753 759 748 746 756 747 742 739 744 746 770 767 763 768 773 778 782 786 790
805 800 795 788 782 775 768 763 758 755 752 750 752 756 753 734 733 732 733 733 735 737 739 742 744 747 751 749 752 756 759 769 743 740 742 749 777 765 761 769 777 780 782 785 790
803 798 792 785 779 772 765 759 755 753 753 753 755 756 749 732 731 729 729 730 732 737 741 742 744 752 752 767 777 772 779 768 754 738 744 754 774 764 762 769 775 779 781 783 789
801 795 789 783 776 769 762 756 754 754 755 755 756 760 738 737 732 728 727 727 730 736 743 746 756 768 772 779 800 780 774 765 766 753 748 763 769 767 765 769 771 776 779 781 785
799 793 787 781 775 769 762 758 761 761 757 753 750 749 740 735 731 726 725 726 729 736 755 751 768 780 772 767 760 761 763 766 758 746 755 764 773 769 767 770 773 775 778 779 779
797 792 786 779 773 770 767 769 774 777 771 746 744 746 737 738 742 728 725 731 737 752 747 760 773 759 756 758 760 763 770 772 759 752 757 769 776 772 768 765 764 768 774 774 776
796 791 785 777 772 771 771 771 771 770 775 749 740 740 736 738 743 734 726 726 737 751 754 765 753 747 751 760 765 766 774 770 767 757 759 767 784 778 769 767 768 767 767 770 771
794 790 784 776 775 773 771 770 768 767 787 757 741 736 735 736 738 724 722 726 736 750 754 754 743 748 755 758 759 776 764 758 761 776 797 766 808 784 773 769 767 766 764 764 766
792 787 784 780 778 775 772 768 765 767 792 750 743 734 735 739 737 728 722 725 742 743 749 755 751 752 756 755 752 765 758 756 759 775 778 779 798 783 772 776 764 756 755 755 757
789 784 779 777 776 771 768 765 766 787 789 760 752 756 752 749 745 737 727 724 729 737 740 744 734 741 744 742 744 743 753 769 777 787 810 783 787 783 779 754 747 746 745 745 749
784 779 774 774 773 770 767 766 789 793 769 777 771 766 768 771 757 754 752 762 771 766 761 748 744 735 732 749 745 752 773 808 808 811 810 784 789 762 742 732 729 730 731 732 736
779 774 772 773 772 770 768 778 787 781 779 771 775 773 781 781 772 768 762 776 769 772 774 772 774 744 733 745 758 766 775 804 809 818 798 782 789 759 725 717 714 718 720 725 730
778 775 775 775 773 772 777 798 792 784 779 780 778 788 791 784 784 777 785 792 782 780 780 777 769 736 731 732 739 763 777 763 788 796 795 782 762 731 719 718 718 716 719 718 719
781 778 777 775 774 774 790 796 791 783 780 780 791 794 802 797 789 791 794 794 790 780 779 779 777 747 729 726 734 746 749 778 802 804 796 786 769 756 727 720 717 718 713 708 710
781 782 780 775 776 784 801 799 788 780 779 784 791 799 802 802 800 801 801 797 791 785 780 786 781 758 741 742 752 755 760 772 777 791 799 797 772 731 720 712 712 709 702 701 704
788 789 780 776 791 813 802 793 788 787 785 788 792 796 799 801 801 802 801 799 795 793 793 787 795 785 762 741 745 739 748 757 784 781 789 784 761 706 707 703 703 698 696 696 698
801 799 781 777 802 811 804 794 790 788 788 790 794 794 797 800 803 803 802 798 795 797 798 792 798 797 764 755 748 757 750 755 770 775 781 781 758 704 706 701 692 694 694 694 696
804 804 798 796 812 807 810 802 798 791 792 792 793 795 800 804 806 806 804 798 797 797 788 796 802 796 796 775 771 765 757 747 764 782 770 769 745 721 706 700 691 692 690 690 692
809 818 818 821 816 818 813 811 804 804 800 797 796 797 800 805 809 810 807 808 802 800 801 805 800 793 784 775 771 766 758 751 756 756 762 745 748 726 711 703 693 688 689 691 692
814 818 821 825 823 816 818 817 810 808 805 803 804 802 802 807 806 810 810 813 810 808 811 814 799 794 781 764 764 761 752 750 749 746 748 747 743 717 708 699 692 684 688 691 691
813 814 817 828 826 821 816 811 811 811 804 806 807 806 805 805 805 808 810 811 808 809 816 816 815 801 784 769 769 769 753 749 744 750 753 749 732 729 719 707 693 688 686 687 685
Wind_Speed
26 27 28 29 29 28 28 29 28 28 24 22 20 20 22 27 28 16 7 11 6 14 21 24 10 13 12 4 4 2 2 1 4 5 4 7 5 2 4 9 3 4 6 11 28
26 27 29 30 30 30 30 30 28 29 26 21 19 19 20 25 20 12 13 12 11 22 22 20 7 9 3 4 3 3 2 6 5 3 4 10 11 8 4 8 2 7 16 28 27
28 28 30 31 32 32 31 31 30 30 24 19 16 16 19 18 5 6 9 3 19 26 21 20 18 7 3 3 4 5 5 5 4 6 7 9 8 5 9 5 6 18 20 22 25
28 30 31 32 32 32 32 31 32 28 21 19 18 15 14 6 3 2 5 14 18 27 15 10 7 7 5 6 6 3 8 7 4 3 8 12 11 7 12 5 9 19 24 21 19
30 31 33 34 34 34 32 31 32 25 25 23 18 11 4 3 10 7 11 5 17 25 15 7 6 5 5 5 4 7 5 6 9 5 8 12 12 6 13 1 17 19 19 19 15
30 31 33 35 37 35 33 33 29 26 23 20 15 5 4 4 4 2 10 7 12 21 10 7 8 7 4 4 3 4 6 7 8 10 12 13 6 9 7 11 18 19 19 16 15
30 32 34 36 37 35 35 30 28 28 19 16 7 8 3 14 4 11 9 4 8 21 6 13 5 6 4 3 3 5 6 6 2 5 8 11 3 8 12 15 18 17 17 14 13
32 33 35 36 36 35 35 27 30 21 12 6 10 5 7 6 8 12 17 13 11 18 12 4 12 2 1 4 5 1 3 1 3 5 9 11 14 4 16 18 16 16 15 14 11
31 33 35 37 38 36 29 27 18 5 9 10 4 2 9 8 7 5 5 7 13 11 11 5 8 4 2 3 5 5 3 3 1 2 12 3 4 8 14 16 16 15 14 13 10
32 33 35 38 35 35 23 16 5 4 4 2 0 2 4 5 8 17 8 10 3 7 2 4 4 3 3 4 5 3 1 1 2 4 6 4 2 11 14 16 17 15 13 14 13
33 33 34 38 36 18 22 4 6 4 6 5 5 5 9 12 7 5 3 5 3 4 6 5 4 6 7 7 4 1 2 3 1 1 4 4 6 14 14 11 13 13 13 14 15
33 34 36 37 32 9 9 6 7 4 9 8 11 7 19 2 5 4 2 5 5 5 3 4 7 9 9 6 4 4 4 3 2 4 6 5 2 8 13 14 16 16 15 16 12
33 33 36 34 17 8 4 7 12 5 2 8 4 4 5 8 6 7 3 3 4 6 5 6 3 8 6 5 6 3 4 3 3 2 5 6 3 6 7 6 9 10 13 13 15
34 34 36 37 4 16 3 10 20 5 4 7 4 2 2 4 3 6 6 4 1 9 8 5 4 6 5 4 5 2 7 5 2 3 3 1 4 6 8 12 12 13 14 15 16
35 35 36 22 12 6 8 19 11 3 3 9 6 2 8 2 7 3 2 4 7 6 6 7 6 6 4 6 5 5 6 2 2 3 2 1 3 6 8 13 18 18 18 18 16
37 34 31 6 6 6 15 17 2 5 4 7 6 8 7 8 9 7 1 2 3 4 1 7 2 6 10 4 8 4 2 5 4 3 1 8 7 5 8 20 19 16 20 21 19
38 35 15 4 2 9 18 3 4 3 5 7 5 7 3 8 9 9 6 10 5 3 4 3 2 2 3 5 2 4 6 2 2 1 6 5 5 8 9 14 20 22 22 22 22
35 19 6 5 8 14 6 5 2 2 3 3 6 4 6 9 6 12 4 6 8 7 3 6 4 6 3 7 6 6 8 5 6 5 3 4 6 6 11 14 19 14 16 16 19
32 9 5 12 8 5 5 4 2 1 3 5 3 6 7 5 3 7 7 9 4 8 4 3 5 5 4 5 10 4 5 6 4 2 2 3 6 9 8 7 8 16 9 17 19
16 9 4 19 2 5 5 2 1 2 4 4 4 4 6 8 6 7 6 7 8 8 2 3 2 3 4 4 2 7 8 4 3 4 4 4 3 8 4 9 8 10 17 18 14
6 3 12 9 2 5 3 3 3 3 2 4 2 4 3 3 3 4 5 3 10 10 5 5 1 6 1 3 8 2 1 6 5 4 6 2 7 7 9 10 8 12 15 15 14
4 2 16 4 4 1 1 2 5 4 6 5 4 4 2 2 3 4 3 3 9 7 5 3 2 3 7 4 4 3 8 7 5 4 2 2 7 4 8 9 8 10 9 9 12
2 2 10 6 2 3 5 3 4 5 4 2 3 2 1 1 3 3 4 3 10 7 6 6 3 4 3 5 5 6 2 4 5 3 6 6 6 2 5 9 5 5 7 9 10
2 4 4 5 2 3 4 4 5 7 4 3 2 4 3 2 5 1 3 3 8 4 9 3 1 4 4 4 2 4 4 1 5 4 3 6 6 7 9 8 8 2 5 6 8
3 1 1 3 4 4 3 4 3 6 5 5 2 2 3 2 2 0 3 5 5 8 6 4 3 3 6 10 4 5 5 3 5 5 6 5 7 11 9 7 8 3 6 6 7
2 2 3 1 2 2 4 4 4 4 2 4 4 4 2 3 2 2 1 1 4 5 6 5 3 2 4 7 7 5 8 7 5 2 6 5 7 6 8 8 7 9 5 7 9
3 2 3 4 3 2 2 3 4 4 2 3 2 2 2 2 3 4 5 4 4 2 2 3 2 1 4 4 5 4 5 2 0 7 3 4 5 12 8 11 6 6 5 7 9
Wind_Direction
2 1 358 357 354 352 349 347 345 342 337 334 333 337 336 330 324 312 258 247 215 183 167 156 142 155 174 191 225 135 44 263 201 163 227 155 125 122 76 133 163 168 151 150 150
355 353 353 351 350 348 345 342 341 338 332 329 328 333 334 331 324 271 285 251 201 177 160 155 158 146 174 203 214 129 130 228 196 197 198 175 137 131 112 156 90 79 108 135 147
350 348 348 347 345 344 342 339 337 334 329 327 325 329 331 335 316 252 4 310 195 181 177 169 155 141 188 166 204 182 212 220 249 238 157 156 134 132 133 239 203 153 146 151 154
348 347 345 344 342 340 338 335 333 331 329 324 315 319 326 341 304 26 325 4 176 178 168 158 134 159 169 208 196 198 234 254 263 273 153 167 138 152 163 244 139 156 153 155 161
347 346 343 341 339 339 335 333 329 327 325 314 303 298 334 347 251 303 315 325 162 177 183 164 143 164 171 209 203 241 252 232 242 221 177 156 173 154 190 127 137 144 152 162 166
346 344 342 341 339 337 333 330 328 327 321 311 302 195 159 248 241 287 61 140 180 182 186 156 184 187 208 229 205 236 236 255 246 214 174 163 153 132 165 131 141 149 162 166 173
345 343 343 341 338 336 332 328 328 325 318 302 281 158 173 236 200 202 281 287 240 199 165 201 181 154 168 237 296 269 298 303 282 183 166 123 110 207 137 149 149 161 166 168 179
345 344 343 341 339 336 332 327 327 324 322 300 155 140 240 269 285 268 263 272 225 213 215 267 210 68 213 305 355 260 55 6 326 117 142 135 220 146 148 151 158 168 174 175 179
345 344 343 341 340 338 333 328 327 33 58 105 115 168 267 307 286 335 282 217 189 189 212 67 140 170 359 93 357 2 193 168 74 13 142 132 226 151 157 162 162 175 179 179 178
343 345 342 340 342 338 339 337 49 25 41 15 266 3 272 325 314 312 293 197 152 116 111 142 75 124 55 101 211 206 157 42 64 165 156 122 99 156 167 172 170 177 185 183 187
343 343 342 340 342 344 351 5 15 359 15 233 216 258 299 331 304 270 319 145 162 116 153 180 134 188 179 178 189 274 51 123 264 47 133 191 150 178 173 179 174 182 192 200 201
343 344 343 339 341 359 14 84 114 263 305 246 244 250 256 270 299 270 211 137 139 177 123 63 207 202 184 191 198 205 149 252 309 341 150 131 97 182 192 192 188 185 195 204 205
343 345 344 338 340 357 357 128 349 347 276 302 224 236 279 140 212 265 195 145 135 146 173 169 243 152 155 165 174 192 160 176 149 50 40 110 29 160 205 197 209 212 210 213 207
342 343 344 338 350 340 303 335 335 171 42 287 3 340 91 158 281 223 222 146 119 183 154 224 216 160 154 183 146 194 191 179 234 106 196 65 241 238 198 211 215 210 209 208 208
339 339 340 336 293 301 317 331 337 137 15 336 334 121 322 343 309 30 248 39 165 165 119 234 165 163 172 180 152 216 179 144 219 118 101 139 80 265 157 219 222 216 211 213 208
338 336 334 338 271 286 330 331 79 46 267 340 340 357 10 7 354 306 308 83 167 134 149 215 179 163 192 168 164 185 103 51 54 102 94 226 158 252 192 216 227 219 217 212 206
336 335 322 279 259 321 332 33 47 137 344 352 335 3 46 342 349 5 17 53 33 123 181 351 246 252 122 119 123 104 90 336 34 91 218 179 163 237 224 220 217 210 214 210 208
338 341 357 330 303 317 335 52 140 13 4 337 2 1 67 2 349 345 58 31 19 14 119 169 269 184 183 160 168 178 151 156 175 189 220 127 220 249 222 222 227 229 223 210 207
343 5 34 352 346 346 61 66 180 303 320 353 21 40 359 2 22 14 59 7 26 1 65 61 262 310 210 154 144 186 170 179 79 14 92 230 289 295 243 245 204 213 190 207 206
344 339 15 356 28 3 71 153 232 250 350 56 93 23 37 344 36 26 32 333 333 351 210 341 312 265 277 133 155 152 171 115 21 165 200 282 251 235 207 245 213 211 212 218 200
5 46 2 354 2 44 103 219 294 5 71 47 105 82 48 16 18 30 5 66 357 334 22 355 61 286 357 198 165 76 251 54 119 148 166 158 256 217 223 237 230 226 216 207 189
11 61 357 79 45 35 83 307 333 344 27 56 83 94 117 17 40 55 51 62 348 333 356 324 115 272 243 276 300 216 188 160 132 217 199 163 269 222 228 265 250 258 203 190 190
32 273 355 5 82 357 321 335 22 16 25 70 111 96 49 104 82 36 343 97 12 19 349 334 350 357 17 355 12 54 28 115 109 79 194 168 261 299 260 258 283 267 190 174 166
38 16 340 38 43 70 15 359 354 357 57 9 88 67 109 95 4 127 349 358 343 331 351 7 224 170 187 235 246 330 316 85 119 130 208 222 297 313 300 300 311 233 212 191 171
29 35 191 2 2 13 4 344 12 7 4 11 41 160 141 73 54 40 350 334 322 1 13 67 256 221 257 259 247 248 256 244 180 183 169 247 222 264 268 291 297 276 198 176 192
88 57 15 45 325 20 11 359 24 337 2 6 38 350 115 140 149 231 101 317 262 341 9 5 266 293 287 277 223 262 242 239 232 216 257 251 278 267 300 274 290 301 163 188 202
47 88 102 342 1 65 52 6 30 358 35 82 246 87 54 209 200 207 206 213 212 204 329 327 330 300 259 351 331 277 234 242 357 51 353 198 253 341 325 322 310 298 335 245 208